TimePST,TemperatureF,Dew PointF,Humidity,Sea Level PressureIn,VisibilityMPH,Wind Direction,Wind SpeedMPH,Gust SpeedMPH,PrecipitationIn,Events,Conditions,WindDirDegrees,DateUTC
12:55 AM,30.9,17.1,57,29.87,10.0,Calm,Calm,-,N/A,,Mostly Cloudy,0,2013-02-08 08:55:00
1:55 AM,27.0,16.0,63,29.87,10.0,SSW,4.6,-,N/A,,Mostly Cloudy,210,2013-02-08 09:55:00
2:55 AM,27.0,16.0,63,29.85,10.0,SSW,4.6,-,N/A,,Mostly Cloudy,210,2013-02-08 10:55:00
3:55 AM,26.1,16.0,66,29.85,10.0,SE,3.5,-,N/A,,Mostly Cloudy,140,2013-02-08 11:55:00
4:55 AM,25.0,17.1,72,29.86,10.0,Calm,Calm,-,N/A,,Mostly Cloudy,0,2013-02-08 12:55:00
5:55 AM,25.0,17.1,72,29.88,10.0,Calm,Calm,-,N/A,,Mostly Cloudy,0,2013-02-08 13:55:00
6:55 AM,26.1,18.0,71,29.89,10.0,Calm,Calm,-,N/A,,Mostly Cloudy,0,2013-02-08 14:55:00
7:55 AM,28.9,19.0,67,29.89,10.0,NNW,10.4,-,N/A,,Mostly Cloudy,340,2013-02-08 15:55:00
8:55 AM,30.0,19.0,64,29.90,10.0,NNW,6.9,-,N/A,,Mostly Cloudy,340,2013-02-08 16:55:00
9:55 AM,32.0,17.1,54,29.90,10.0,NNW,9.2,-,N/A,,Mostly Cloudy,340,2013-02-08 17:55:00
10:55 AM,34.0,17.1,50,29.89,10.0,North,6.9,-,N/A,,Mostly Cloudy,360,2013-02-08 18:55:00
11:55 AM,35.1,17.1,48,29.88,10.0,NNW,12.7,-,N/A,,Mostly Cloudy,330,2013-02-08 19:55:00
12:55 PM,36.0,17.1,46,29.87,10.0,North,13.8,21.9,N/A,,Overcast,350,2013-02-08 20:55:00
1:55 PM,36.0,17.1,46,29.88,10.0,NNW,16.1,23.0,N/A,,Mostly Cloudy,340,2013-02-08 21:55:00
2:55 PM,36.0,18.0,48,29.88,10.0,North,16.1,-,N/A,,Mostly Cloudy,360,2013-02-08 22:55:00
3:55 PM,35.1,18.0,50,29.90,10.0,NNW,13.8,-,N/A,,Mostly Cloudy,340,2013-02-08 23:55:00
4:55 PM,34.0,19.0,54,29.91,10.0,NNW,18.4,24.2,N/A,,Mostly Cloudy,340,2013-02-09 00:55:00
5:55 PM,33.1,18.0,54,29.93,10.0,NNW,13.8,-,N/A,,Mostly Cloudy,330,2013-02-09 01:55:00
6:55 PM,33.1,16.0,50,29.94,10.0,North,11.5,-,N/A,,Mostly Cloudy,360,2013-02-09 02:55:00
7:55 PM,32.0,15.1,50,29.95,10.0,NNW,12.7,-,N/A,,Mostly Cloudy,330,2013-02-09 03:55:00
8:55 PM,30.9,14.0,50,29.96,10.0,NNW,9.2,-,N/A,,Scattered Clouds,340,2013-02-09 04:55:00
9:55 PM,30.0,15.1,54,29.96,10.0,North,9.2,-,N/A,,Scattered Clouds,350,2013-02-09 05:55:00
10:55 PM,30.0,15.1,54,29.97,10.0,NW,8.1,18.4,N/A,,Scattered Clouds,320,2013-02-09 06:55:00
11:55 PM,30.0,15.1,54,29.97,10.0,NW,10.4,-,N/A,,Scattered Clouds,310,2013-02-09 07:55:00